Location: Trois-Rivi�res
(46.3500°N, 72.5500°W)
Time: 09:43:02
(UTC-04:00)

Tiangong 2 - Pass Details

Date: 11 October 2017
Orbit: 388 x 391 km, 42.8° (Epoch: 23 October)

Event Time Altitude Azimuth Distance (km) Brightness Sun altitude
Exits shadow 06:11:05 11° 239° (WSW) 1,373 3.3 -9.6°
Maximum altitude 06:13:57 38° 171° (S) 615 2.2 -9.1°
Drops below altitude 10° 06:16:58 10° 101° (E) 1,423 5.5 -8.6°
Sets 06:19:08 0° 93° (E) 2,280 7.6 -8.2°
